Date,TemperatureHighF,TemperatureAvgF,TemperatureLowF,DewpointHighF,DewpointAvgF,DewpointLowF,HumidityHigh,HumidityAvg,HumidityLow,PressureMaxIn,PressureMinIn,WindSpeedMaxMPH,WindSpeedAvgMPH,GustSpeedMaxMPH,PrecipitationSumIn
2014-1-1,27.2,21.1,15.2,13.4,8.2,3.9,76,58,41,30.32,30.12,12,0,14,0.00
2014-1-2,21.4,14.5,1.8,17.2,11.6,-2.0,91,88,61,30.29,29.73,12,0,12,0.00
2014-1-3,12.9,5.0,-1.2,10.0,1.4,-5.8,89,85,80,30.34,29.61,14,1,14,0.00
2014-1-4,24.8,11.8,-3.5,22.2,7.7,-8.1,90,83,79,30.45,30.21,13,0,13,0.01
2014-1-5,41.3,29.5,19.2,41.2,26.1,15.4,100,87,70,30.24,29.83,11,0,12,0.28
2014-1-6,56.6,44.8,26.4,56.6,42.7,14.4,100,93,64,29.84,29.22,19,1,19,0.44
2014-1-7,26.4,12.7,6.1,20.8,-2.6,-11.7,92,50,33,30.18,29.44,18,2,18,0.00
2014-1-8,20.8,12.2,4.8,5.0,-1.4,-9.1,65,54,40,30.41,30.18,10,0,11,0.00
2014-1-9,29.3,19.3,14.1,10.7,7.3,4.0,77,60,39,30.58,30.37,11,0,11,0.00
2014-1-10,34.6,26.3,12.8,34.6,24.4,8.4,100,92,73,30.53,30.20,2,0,2,0.08
2014-1-11,57.8,49.1,33.5,57.8,49.1,33.5,100,100,100,30.20,29.23,17,1,17,0.63
2014-1-12,52.2,41.7,30.4,52.2,33.7,24.3,100,74,54,29.91,29.23,19,1,20,0.10
2014-1-13,49.6,39.1,29.0,45.2,31.7,24.0,95,76,47,30.05,29.83,11,0,14,0.00
2014-1-14,48.8,46.6,41.8,47.9,45.7,41.6,100,97,90,29.83,29.53,8,0,8,0.81
2014-1-15,41.6,39.1,36.9,41.6,39.1,36.8,100,100,100,29.80,29.67,5,0,5,0.00
2014-1-16,37.3,37.0,36.6,37.3,37.0,36.6,100,100,100,29.85,29.82,0,0,0,0.00
2014-1-17,44.1,36.9,31.5,37.2,30.5,21.7,100,80,43,29.92,29.82,10,0,10,0.01
2014-1-18,35.9,33.0,32.1,35.9,33.0,31.2,100,100,95,29.77,29.53,1,0,1,0.20
2014-1-19,33.2,30.2,27.6,28.7,24.2,21.5,100,79,67,29.64,29.48,14,1,16,0.04
2014-1-20,40.8,34.1,25.8,29.1,24.3,8.2,82,67,46,29.79,29.43,13,1,16,0.13
2014-1-21,25.6,15.0,10.2,9.1,4.7,-1.9,90,65,43,29.97,29.76,7,0,12,0.00
2014-1-22,17.0,9.6,5.4,7.6,0.6,-7.4,89,69,40,29.83,29.55,14,0,14,0.00
2014-1-23,20.8,9.5,0.1,0.6,-3.6,-7.6,78,56,34,30.09,29.83,14,0,14,0.01
2014-1-24,16.5,10.1,4.7,0.7,-4.3,-8.6,70,52,32,30.19,30.00,13,0,14,0.00
2014-1-25,36.9,25.8,12.3,27.7,16.9,0.4,93,69,57,30.01,29.30,29,1,29,0.01
2014-1-27,45.2,33.2,18.9,38.3,19.6,-3.4,90,59,29,29.92,29.30,16,1,20,0.04
2014-1-28,18.8,15.2,10.7,1.9,-7.0,-14.7,48,36,26,30.24,29.91,14,0,14,0.00
2014-1-29,24.7,17.5,12.8,9.8,1.2,-8.2,86,51,24,30.16,29.91,10,0,11,0.01
2014-1-30,29.1,18.6,8.4,14.0,4.1,-4.8,82,54,35,30.36,30.12,10,0,10,0.00
2014-1-31,41.5,31.5,18.8,25.1,18.4,10.0,90,61,33,30.14,29.94,11,0,11,0.00
2014-2-1,45.5,35.8,30.0,30.5,23.4,20.0,89,61,40,30.26,29.96,8,0,8,0.00
2014-2-2,54.7,41.8,31.3,39.6,35.9,29.0,98,81,54,29.98,29.79,11,0,11,0.00
2014-2-3,39.1,31.6,22.7,32.8,28.5,22.0,99,89,64,30.22,29.97,5,0,5,0.00
2014-2-4,34.0,25.3,16.4,25.1,21.2,14.7,98,85,61,30.39,30.21,6,0,6,0.21
2014-2-5,32.5,27.6,23.2,32.5,26.7,22.2,100,97,91,30.23,29.54,7,0,7,0.00
2014-2-6,27.2,20.4,15.9,22.2,16.1,12.7,96,84,59,30.19,29.84,3,0,3,0.11
2014-2-7,29.7,20.9,11.4,15.0,11.9,7.2,87,69,45,30.19,30.09,11,0,12,0.03
2014-2-8,29.0,21.3,12.3,12.5,6.3,-0.8,80,54,30,30.24,30.05,10,0,10,0.00
2014-2-9,29.8,24.8,19.2,23.3,16.1,7.1,93,70,51,30.09,29.88,8,0,8,0.01
2014-2-10,27.6,20.7,11.4,22.2,12.1,4.0,93,71,46,30.14,29.83,12,0,12,0.01
2014-2-11,24.2,14.6,5.8,8.6,3.7,0.8,87,63,39,30.36,30.14,13,0,13,0.00
2014-2-12,27.2,15.0,1.1,10.2,0.8,-5.2,78,56,25,30.49,30.33,5,0,6,0.01
2014-2-13,35.2,27.1,15.2,35.2,25.5,8.7,100,93,74,30.33,28.91,17,1,17,0.11
2014-2-14,35.3,32.1,28.4,33.4,27.8,22.2,100,85,67,29.67,28.76,24,2,24,0.10
2014-2-15,35.8,29.9,26.0,30.3,26.0,22.6,100,86,61,29.77,29.39,2,0,3,0.05
2014-2-16,30.4,24.7,18.8,28.2,15.9,8.1,100,71,44,29.91,29.39,17,0,17,0.03
2014-2-17,29.0,20.4,12.3,8.4,-0.9,-6.4,60,40,24,30.25,29.90,13,1,13,0.00
2014-2-19,37.0,33.2,24.8,32.5,31.3,-2.9,100,93,29,30.25,29.63,3,0,3,0.42
2014-2-20,48.5,38.0,31.5,34.0,29.7,21.7,100,76,35,30.13,29.75,10,0,13,0.79
2014-2-21,46.2,37.5,33.5,46.2,37.5,33.5,100,100,99,30.08,29.59,10,0,10,0.23
2014-2-22,51.6,41.3,31.9,38.0,29.4,19.9,100,68,30,29.91,29.78,22,1,22,0.01
2014-2-23,51.9,43.6,35.5,31.4,28.3,25.0,77,56,36,29.92,29.70,6,0,9,0.00
2014-2-24,40.1,31.6,21.9,28.4,14.5,4.7,65,49,35,29.89,29.66,19,1,19,0.00
2014-2-25,28.5,22.1,16.9,11.7,8.5,6.0,65,56,43,29.94,29.81,17,0,17,0.00
2014-2-26,30.1,19.5,10.0,10.7,3.8,-9.4,71,52,27,29.89,29.69,18,0,18,0.00
2014-2-27,28.5,16.7,5.0,23.4,4.4,-7.6,94,59,30,29.86,29.51,13,1,16,0.00
2014-2-28,24.2,14.3,7.0,-1.4,-7.5,-14.1,57,38,20,30.37,29.85,16,1,16,0.00
2014-3-1,35.9,22.1,4.5,24.8,9.9,-7.1,79,60,30,30.39,30.03,13,0,13,0.00
2014-3-2,37.6,33.2,30.0,25.4,21.9,17.8,74,63,54,30.04,29.89,7,0,7,0.00
2014-3-3,30.0,20.5,9.9,18.7,5.4,-2.7,64,52,37,30.22,29.91,10,0,10,0.00
2014-3-4,30.6,17.8,2.8,13.7,0.6,-8.4,77,50,25,30.31,30.18,8,0,8,0.00
2014-3-5,29.5,23.6,16.9,22.0,15.4,9.1,88,71,57,30.41,30.16,5,0,6,0.00
2014-3-6,29.8,18.0,7.6,9.3,1.1,-11.4,81,50,22,30.56,30.40,5,0,7,0.00
2014-3-7,37.3,23.8,5.0,26.6,15.8,1.5,87,73,47,30.45,29.87,5,0,5,0.00
2014-3-8,54.8,37.7,22.9,28.1,25.4,21.4,95,66,30,29.87,29.60,7,0,10,0.00
2014-3-9,41.9,33.5,27.2,26.8,15.3,9.3,72,48,28,29.86,29.77,11,0,12,0.00
2014-3-10,43.8,34.9,28.8,30.4,23.9,10.7,89,65,44,29.83,29.53,9,0,9,0.00
2014-3-11,57.8,44.6,34.4,36.2,31.3,25.7,98,64,30,29.65,29.44,17,0,17,0.00
2014-3-12,42.6,40.2,37.6,31.6,29.1,27.7,75,65,56,29.65,29.58,0,0,1,0.00
2014-3-14,36.8,35.5,34.3,29.7,24.0,15.9,77,63,42,29.94,29.83,16,1,16,0.03
2014-3-15,56.7,42.6,36.2,39.5,32.3,21.3,95,68,34,29.85,29.58,19,1,26,0.02
2014-3-16,39.3,30.2,24.7,26.2,8.7,-0.4,60,41,24,30.11,29.82,16,1,16,0.00
2014-3-17,30.3,21.8,15.6,8.8,-1.1,-7.0,71,38,21,30.11,29.97,11,0,11,0.00
2014-3-18,41.1,25.8,12.3,18.8,12.8,5.1,83,60,32,30.29,30.09,5,0,7,0.00
2014-3-19,49.5,33.4,18.6,30.7,21.1,16.3,92,65,29,30.33,29.89,11,0,11,0.00
2014-3-20,52.5,41.2,34.3,44.3,34.0,24.8,100,78,44,29.91,29.55,16,0,16,0.32
2014-3-21,42.5,37.0,29.3,30.5,22.5,19.9,74,56,42,29.98,29.68,20,1,20,0.00
2014-3-22,56.6,39.2,25.0,41.1,25.8,19.2,82,61,34,30.00,29.59,13,1,25,0.00
2014-3-23,42.5,33.6,25.3,25.6,15.7,1.7,81,51,25,30.00,29.82,16,0,16,0.00
2014-3-24,32.7,23.4,14.8,6.5,-0.6,-5.3,53,36,20,30.09,29.96,17,1,17,0.00
2014-3-25,38.5,27.2,15.6,16.7,9.7,3.5,68,49,25,30.08,29.76,11,0,11,0.00
2014-3-26,34.7,29.1,22.9,21.6,8.8,-4.4,82,44,26,29.99,29.50,26,4,26,0.00
2014-3-27,46.7,31.3,18.8,21.0,3.4,-4.7,60,32,14,30.24,29.95,13,1,14,0.00
2014-3-28,57.5,45.0,33.2,48.5,38.5,20.4,97,79,59,30.20,29.88,18,1,18,0.08
2014-3-29,53.2,44.6,38.9,47.4,41.9,38.7,100,91,65,30.16,29.94,8,0,8,0.35
2014-3-31,39.6,37.0,36.8,39.6,30.3,29.6,100,77,75,30.01,29.90,13,1,13,0.21
2014-4-1,54.7,41.4,31.8,34.1,30.1,27.0,83,66,42,30.04,29.91,12,0,12,0.01
2014-4-2,59.8,43.8,31.3,34.0,30.6,22.3,90,63,33,30.05,29.93,8,0,8,0.00
2014-4-3,58.0,43.9,31.5,35.1,28.2,18.4,94,60,27,30.07,29.95,11,0,11,0.00
2014-4-4,51.4,41.7,35.6,36.1,31.4,26.4,98,69,43,30.08,29.74,8,0,8,0.27
2014-4-5,51.6,42.0,36.0,44.1,34.0,23.1,100,76,41,29.89,29.61,19,1,20,0.20
2014-4-6,59.2,43.0,29.4,25.8,22.3,16.9,83,48,20,30.12,29.87,12,0,12,0.00
2014-4-7,60.9,47.3,34.1,43.4,27.8,18.2,96,50,23,30.15,29.81,12,0,12,0.06
2014-4-8,65.0,53.6,44.5,58.8,49.5,33.6,100,87,61,29.82,29.24,17,1,17,0.63
2014-4-9,59.3,49.4,38.2,36.3,26.8,8.4,86,45,23,29.90,29.44,16,1,16,0.00
2014-4-10,60.9,45.6,29.7,38.0,22.5,9.2,74,42,19,30.09,29.89,17,1,17,0.00
2014-4-11,71.3,57.7,45.7,51.3,43.6,36.5,80,61,37,29.96,29.84,13,0,14,0.00
2014-4-12,70.4,57.1,44.6,47.9,37.8,26.3,96,55,23,30.14,29.88,17,0,17,0.01
2014-4-13,68.1,55.4,45.7,53.4,42.6,27.9,84,64,27,30.18,29.95,10,0,14,0.00
2014-4-14,74.6,63.9,56.9,57.7,54.6,51.9,89,73,53,29.96,29.83,27,3,28,0.00
2014-4-15,66.3,58.3,41.3,60.1,57.0,40.8,100,96,74,29.84,29.50,20,2,21,1.19
2014-4-16,45.1,36.8,30.0,41.0,24.8,15.8,99,65,33,30.53,29.65,13,1,16,0.47
2014-4-17,42.6,34.1,27.3,28.0,23.4,17.3,87,65,51,30.72,30.53,12,1,12,0.00
2014-4-18,46.1,36.3,26.4,34.6,30.4,24.8,97,80,59,30.58,30.17,8,0,8,0.00
2014-4-19,63.9,49.1,36.0,37.0,32.3,25.6,94,58,27,30.33,30.10,14,1,16,0.00
2014-4-20,58.6,45.2,31.2,34.8,25.7,15.7,86,52,22,30.43,30.26,7,0,8,0.00
2014-4-21,69.6,49.8,32.1,41.4,33.5,22.4,98,61,23,30.26,29.78,10,0,11,0.00
2014-4-22,73.7,57.0,43.8,52.3,44.5,39.9,98,67,32,29.78,29.40,14,1,14,0.10
2014-4-23,52.8,49.7,46.1,52.0,45.1,33.0,100,86,56,29.54,29.34,20,1,20,0.16
2014-4-24,58.9,48.4,40.2,33.7,24.8,16.7,62,41,25,29.84,29.54,24,2,24,0.00
2014-4-25,65.8,49.9,36.5,35.9,29.1,21.4,71,48,19,29.93,29.76,11,0,11,0.00
2014-4-26,45.4,43.6,41.5,44.6,41.2,35.7,99,91,69,29.80,29.70,3,0,5,0.24
2014-4-27,51.7,43.8,40.8,44.3,41.9,38.8,100,93,67,29.97,29.76,5,0,5,0.08
2014-4-28,58.7,46.9,35.3,40.7,38.4,34.3,98,74,49,30.14,29.92,11,0,11,0.00
2014-4-29,45.5,42.0,40.2,40.0,36.6,34.7,89,81,71,30.45,30.13,10,1,10,0.00
2014-4-30,48.3,42.2,39.2,42.8,39.5,35.4,100,91,71,30.46,30.08,6,0,6,0.48
2014-5-1,71.1,56.9,42.9,62.1,55.5,42.9,100,96,71,30.08,29.58,8,0,11,0.66
2014-5-2,67.8,58.2,50.5,55.1,44.6,35.4,100,65,32,29.73,29.59,11,0,14,0.01
2014-5-3,69.1,58.5,44.2,46.2,41.2,36.1,86,55,32,29.80,29.63,12,0,14,0.00
2014-5-4,61.5,54.7,49.1,46.3,40.0,32.6,86,60,36,29.65,29.46,21,2,21,0.00
2014-5-5,64.8,54.9,46.7,44.0,40.9,38.7,76,60,41,29.78,29.54,14,1,14,0.00
2014-5-6,63.4,52.7,40.9,40.8,35.1,28.1,91,56,28,29.96,29.76,14,0,14,0.00
2014-5-7,69.6,54.0,38.5,39.0,32.0,24.0,73,48,19,30.10,29.96,14,0,14,0.00
2014-5-8,68.1,57.0,43.3,55.0,45.0,33.7,93,66,30,30.11,30.00,12,0,12,0.00
2014-5-9,59.5,56.1,54.4,58.1,54.2,50.5,100,93,81,30.15,30.00,3,0,3,0.08
2014-5-10,80.9,66.8,57.2,65.0,61.0,55.2,100,84,43,30.00,29.68,14,1,17,0.10
2014-5-11,80.1,67.6,55.9,61.7,45.0,28.5,98,53,16,29.95,29.71,10,1,13,0.04
2014-5-12,86.3,70.4,54.1,58.9,46.0,36.1,77,46,20,30.03,29.88,13,0,13,0.00
2014-5-13,66.1,51.5,44.3,59.0,42.3,36.9,85,71,55,30.25,29.95,11,0,12,0.00
2014-5-14,75.4,60.3,42.3,54.7,45.8,38.9,93,63,28,30.25,30.17,9,0,9,0.00
2014-5-15,78.5,65.9,58.3,64.6,60.7,54.5,98,84,59,30.21,30.12,13,0,13,0.01
2014-5-16,70.9,65.3,62.7,65.4,63.2,61.2,100,93,76,30.12,29.89,11,0,11,0.20
2014-5-17,76.3,66.2,52.8,65.5,54.4,38.5,100,72,27,29.99,29.75,12,0,13,0.38
2014-5-18,68.1,57.4,44.8,50.3,44.3,35.8,91,64,37,30.03,29.93,7,0,7,0.00
2014-5-19,65.5,56.4,48.0,49.2,39.1,32.4,93,54,32,30.02,29.93,13,0,16,0.00
2014-5-20,75.6,60.7,46.2,49.8,44.7,38.1,96,62,28,29.96,29.85,16,0,17,0.01
2014-5-21,78.6,60.3,44.9,54.5,49.3,43.8,98,71,34,29.92,29.82,10,0,10,0.00
2014-5-22,70.1,57.3,49.6,57.4,53.9,48.8,100,90,59,29.87,29.78,6,0,6,0.28
2014-5-23,62.9,56.0,51.4,58.3,54.4,49.2,100,94,82,29.89,29.79,2,0,2,0.02
2014-5-24,67.8,56.9,50.5,54.0,50.9,47.9,98,82,54,29.98,29.86,3,0,5,0.02
2014-5-25,75.6,57.7,49.4,57.8,53.3,49.1,100,87,44,30.02,29.93,8,0,8,0.00
2014-5-26,78.5,63.9,51.6,63.0,56.7,51.6,100,80,46,29.95,29.73,13,0,13,0.02
2014-5-27,76.1,62.2,49.5,61.0,55.4,49.2,99,80,53,29.85,29.72,6,0,6,0.10
2014-5-28,49.9,47.8,41.6,49.9,47.6,41.0,100,99,98,30.13,29.80,8,0,8,0.03
2014-5-29,67.9,52.5,37.0,50.8,42.1,35.8,100,73,35,30.17,30.07,7,0,7,0.00
2014-5-30,77.4,57.3,44.6,54.8,49.2,43.8,100,78,34,30.09,29.91,8,0,8,0.35
2014-5-31,64.8,54.9,44.8,53.5,45.7,23.5,100,76,26,30.22,29.96,10,0,10,0.01
2014-6-1,79.8,60.9,41.3,52.8,44.0,38.5,98,61,25,30.26,30.16,6,0,6,0.00
2014-6-2,84.9,67.6,51.3,56.4,49.7,43.2,83,57,25,30.17,29.93,9,0,10,0.00
2014-6-3,87.4,68.6,53.8,63.4,56.3,45.1,96,67,41,29.95,29.80,7,0,7,0.74
2014-6-4,68.9,60.9,53.9,63.4,57.4,47.5,100,89,67,29.82,29.68,2,0,2,0.22
2014-6-5,62.0,60.0,55.9,62.0,59.9,55.9,100,100,97,29.71,29.56,5,0,6,0.71
2014-6-6,75.3,63.7,55.0,60.2,55.8,53.1,100,79,47,29.80,29.62,14,0,14,0.01
2014-6-7,84.0,68.6,53.2,62.8,56.9,52.7,99,70,36,29.86,29.79,6,0,6,0.00
2014-6-8,88.8,73.2,57.2,62.2,56.7,48.2,96,62,26,29.86,29.77,6,0,7,0.00
2014-6-9,77.6,68.6,61.2,62.2,57.9,54.4,94,69,48,29.91,29.82,7,0,7,0.05
2014-6-10,81.6,67.2,58.6,70.6,64.6,57.8,100,92,66,30.01,29.84,7,0,8,0.53
2014-6-11,73.9,62.5,56.5,57.8,54.7,49.4,100,78,46,30.09,30.01,8,0,8,0.00
2014-6-12,72.8,65.2,55.7,64.8,60.0,53.3,93,84,73,30.08,29.97,3,0,6,0.00
2014-6-13,69.1,63.6,60.5,69.1,63.2,58.8,100,99,89,29.98,29.69,6,0,6,0.74
2014-6-14,76.3,65.5,58.9,68.5,62.2,53.1,100,90,68,29.84,29.71,8,0,8,0.03
2014-6-15,80.9,66.1,52.8,59.9,55.1,51.8,98,71,42,29.98,29.83,11,0,12,0.00
2014-6-16,83.4,67.4,52.3,56.4,51.9,44.4,94,62,27,30.07,29.95,10,0,10,0.00
2014-6-17,86.7,72.5,61.2,72.0,64.0,53.5,98,76,61,29.99,29.80,9,0,9,0.00
2014-6-18,86.1,75.8,65.6,68.7,65.2,59.5,99,72,43,29.86,29.66,14,1,14,0.00
2014-6-19,84.3,74.3,64.5,65.7,58.3,40.9,94,61,35,29.88,29.81,8,0,8,0.00
2014-6-20,77.7,65.4,53.1,51.6,46.5,37.7,86,54,26,29.89,29.79,10,0,10,0.00
2014-6-21,76.5,62.9,48.9,54.6,48.3,44.9,91,62,35,29.89,29.79,8,0,8,0.00
2014-6-22,78.6,64.2,50.1,55.8,51.2,46.9,95,66,37,29.95,29.84,6,0,6,0.00
2014-6-23,84.7,66.7,52.5,60.4,54.4,48.3,99,69,34,30.10,29.94,8,0,11,0.00
2014-6-24,84.0,69.4,56.3,63.8,58.2,52.5,95,70,46,30.09,29.94,13,0,13,0.00
2014-6-25,87.6,74.8,63.4,71.9,66.2,57.0,93,76,55,29.94,29.78,12,0,12,0.00
2014-6-26,83.2,71.1,59.5,73.0,67.4,57.0,100,89,65,29.92,29.70,5,0,6,0.11
2014-6-27,78.8,66.3,55.4,58.5,50.8,36.7,100,64,26,30.13,29.92,6,0,6,0.00
2014-6-28,87.4,70.4,55.9,63.5,54.1,37.7,95,62,19,30.18,30.12,4,0,5,0.00
2014-6-29,88.2,71.8,57.5,63.0,57.1,49.7,95,64,28,30.18,30.03,5,0,7,0.00
2014-6-30,89.5,74.3,61.6,66.9,62.3,56.8,98,70,40,30.04,29.85,12,0,12,0.00
2014-7-1,85.9,72.3,66.4,71.7,66.4,61.3,97,83,61,29.86,29.74,11,0,11,0.00
2014-7-2,92.3,79.5,70.4,76.7,71.9,66.8,94,79,59,29.85,29.72,12,0,12,0.00
2014-7-3,93.4,80.7,71.5,76.6,72.9,67.1,96,79,54,29.93,29.80,8,0,8,0.00
2014-7-4,72.1,67.3,61.8,71.8,66.6,61.8,100,98,88,29.91,29.70,5,0,6,1.82
2014-7-5,80.3,68.2,56.6,63.5,54.1,42.8,100,66,31,29.94,29.69,18,1,18,0.14
2014-7-6,85.3,73.3,62.1,62.4,55.6,48.4,82,56,33,29.94,29.79,13,1,14,0.00
2014-7-7,88.4,76.4,66.8,70.5,66.2,62.2,90,72,52,29.81,29.62,16,0,17,0.00
2014-7-8,91.4,78.9,70.9,72.4,69.0,64.3,94,73,47,29.74,29.61,12,0,12,0.00
2014-7-9,88.8,79.8,72.3,70.6,67.1,62.7,93,67,44,29.85,29.59,14,0,14,0.00
2014-7-10,83.4,73.5,65.8,67.2,62.1,56.2,92,70,44,30.06,29.85,7,0,7,0.00
2014-7-11,82.6,71.2,61.0,62.7,60.8,57.7,98,72,46,30.13,30.05,6,0,6,0.00
2014-7-12,88.6,73.5,58.6,67.3,60.4,52.8,97,68,32,30.14,30.03,6,0,6,0.00
2014-7-13,86.5,74.5,64.5,68.5,63.6,56.7,96,72,38,30.05,29.83,18,0,18,0.00
2014-7-14,84.9,75.9,70.8,75.3,71.7,68.2,100,87,66,29.83,29.77,7,0,7,0.26
2014-7-15,84.5,75.7,71.8,76.9,74.0,71.8,100,95,77,29.79,29.68,9,0,10,0.05
2014-7-16,74.6,72.3,68.8,74.6,72.2,68.6,100,100,97,29.77,29.67,5,0,6,0.76
2014-7-17,83.2,71.3,62.4,68.6,62.9,55.0,100,78,42,29.99,29.77,7,0,7,0.00
2014-7-18,82.4,70.0,58.0,63.5,60.0,54.8,100,74,40,30.15,29.99,5,0,5,0.00
2014-7-19,79.6,68.7,60.2,67.7,62.4,59.5,100,82,53,30.18,30.12,3,0,3,0.00
2014-7-20,77.6,67.3,59.3,63.5,60.5,57.5,98,80,56,30.13,30.05,4,0,5,0.00
2014-7-21,81.4,68.9,58.0,64.3,60.9,58.0,100,79,49,30.12,30.05,5,0,5,0.00
2014-7-22,90.1,76.3,63.1,72.3,67.0,62.5,98,76,47,30.07,29.92,3,0,11,0.00
2014-7-23,91.6,78.3,68.1,75.3,70.0,65.3,92,77,54,29.92,29.67,7,0,10,0.00
2014-7-24,78.5,71.7,63.7,69.6,66.5,62.0,97,84,65,29.82,29.65,6,0,6,0.00
2014-7-25,83.0,69.4,55.6,63.0,58.6,53.4,98,72,40,29.91,29.82,6,0,7,0.00
2014-7-26,83.6,71.3,60.7,66.5,61.1,55.2,93,73,41,29.90,29.81,16,0,16,0.00
2014-7-27,76.3,70.5,65.2,73.1,68.9,64.1,100,95,78,29.82,29.58,7,0,7,0.40
2014-7-28,85.3,74.6,66.9,73.0,69.7,64.6,100,86,64,29.60,29.36,17,0,17,0.45
2014-7-29,81.1,69.1,60.5,64.8,59.8,54.9,96,74,45,29.86,29.47,11,0,11,0.00
2014-7-30,81.4,68.0,59.0,60.7,56.6,49.6,95,70,37,29.96,29.85,10,0,11,0.00
2014-7-31,82.4,70.4,59.5,64.9,60.5,56.3,97,73,46,30.08,29.96,10,0,11,0.00
2014-8-1,86.5,73.0,63.1,70.3,66.1,62.5,99,81,54,30.14,30.08,11,0,11,0.00
2014-8-2,68.9,65.5,60.7,68.6,64.7,60.6,100,97,89,30.14,30.04,2,0,3,0.14
2014-8-3,77.2,67.2,60.9,67.2,63.5,60.9,100,89,67,30.06,29.95,2,0,2,0.01
2014-8-4,87.2,73.1,63.4,70.6,66.5,63.0,100,82,48,29.97,29.90,8,0,8,0.00
2014-8-5,90.1,76.4,65.0,70.2,66.1,57.7,100,75,36,29.95,29.80,7,0,7,0.00
2014-8-6,82.6,72.2,62.6,67.6,63.6,56.7,94,76,51,29.80,29.69,6,0,6,0.00
2014-8-7,81.2,65.2,55.9,67.4,58.3,53.6,98,81,41,29.86,29.76,10,0,12,0.12
2014-8-8,83.2,67.6,54.1,62.3,57.2,53.2,100,74,38,29.94,29.85,8,0,8,0.01
2014-8-9,86.1,71.2,58.0,63.8,59.3,52.5,95,70,34,30.00,29.93,6,0,6,0.00
2014-8-10,87.2,72.2,58.9,63.2,59.4,52.5,99,69,33,30.05,29.99,3,0,4,0.00
2014-8-11,88.2,72.4,62.0,65.5,61.2,56.9,97,71,40,30.07,30.02,7,0,11,0.00
2014-8-12,83.6,71.8,62.4,67.9,63.3,57.3,100,77,44,30.04,29.92,6,0,6,0.00
2014-8-13,70.6,67.8,63.9,70.6,67.0,63.9,100,97,84,29.93,29.52,8,0,8,1.56
2014-8-14,75.3,65.1,56.3,63.9,56.5,49.6,100,77,41,29.79,29.58,12,0,12,0.01
2014-8-15,72.3,62.0,55.1,60.4,55.8,51.6,100,82,52,29.85,29.74,8,0,8,0.38
2014-8-16,78.1,66.1,56.2,60.3,55.7,51.5,93,71,45,29.91,29.83,11,0,11,0.00
2014-8-17,80.3,69.2,59.5,65.2,61.3,55.6,99,78,50,29.83,29.68,10,0,10,0.00
2014-8-18,79.0,64.9,54.7,60.0,55.5,50.4,99,75,38,29.81,29.70,10,0,10,0.00
2014-8-19,81.4,65.1,51.1,59.2,54.1,50.3,98,72,36,29.87,29.79,7,0,7,0.00
2014-8-20,83.0,67.5,55.3,62.7,57.5,53.5,100,74,41,29.97,29.87,5,0,5,0.00
2014-8-21,79.6,66.3,53.2,66.6,60.8,52.9,100,84,56,30.02,29.95,3,0,3,0.00
2014-8-22,75.3,67.0,62.0,66.6,63.5,62.0,100,89,68,30.01,29.97,5,0,5,0.17
2014-8-23,74.4,65.2,55.1,62.4,58.4,53.6,98,80,52,30.05,29.99,6,0,6,0.00
2014-8-24,81.1,66.3,54.2,60.4,56.7,53.4,100,75,41,30.07,30.02,7,0,7,0.00
2014-8-25,89.7,72.7,59.3,67.1,61.4,57.6,97,72,35,30.07,30.00,5,0,6,0.00
2014-8-26,90.3,73.0,61.8,68.6,64.8,60.1,100,79,40,30.08,29.97,6,0,6,0.00
2014-8-27,88.8,74.8,62.1,70.6,64.8,57.0,89,73,50,29.97,29.75,10,0,11,0.00
2014-8-28,72.8,71.5,69.6,68.6,68.3,67.8,95,90,86,29.76,29.72,2,0,5,0.00
2014-8-29,77.2,68.0,56.9,59.0,55.8,53.1,91,67,47,30.19,30.09,3,0,3,0.00
2014-8-30,78.5,64.8,52.5,62.3,57.8,52.0,100,81,48,30.23,30.06,5,0,7,0.00
2014-8-31,82.6,73.9,64.5,74.1,69.9,61.8,100,88,74,30.06,29.86,10,0,10,0.13
2014-9-1,88.8,77.5,69.9,75.2,71.6,69.3,100,84,55,29.91,29.81,7,0,7,0.00
2014-9-2,89.9,80.4,70.4,75.3,72.6,70.1,100,79,55,29.85,29.66,10,0,10,0.00
2014-9-3,84.0,74.9,63.9,72.3,62.6,55.7,92,68,41,30.00,29.62,8,0,10,0.00
2014-9-4,87.0,71.6,59.0,63.4,59.0,52.4,95,69,36,30.11,30.00,7,0,8,0.00
2014-9-5,88.6,75.6,65.5,72.1,67.5,62.3,95,78,49,30.08,29.90,10,0,12,0.00
2014-9-6,89.5,79.8,72.0,75.4,72.6,65.2,94,80,60,29.90,29.67,18,0,18,0.00
2014-9-7,79.2,68.5,57.5,66.4,57.2,44.8,100,72,32,30.12,29.81,7,0,7,0.07
2014-9-8,77.2,62.9,51.9,59.2,53.1,48.7,100,74,39,30.29,30.12,8,0,8,0.00
2014-9-9,72.3,61.7,52.6,58.6,55.2,51.5,99,81,54,30.27,30.10,3,0,6,0.00
2014-9-10,76.0,65.1,57.6,61.3,59.6,56.7,100,84,54,30.10,29.95,6,0,7,0.00
2014-9-11,79.8,69.0,59.8,69.2,64.7,58.4,100,87,66,29.95,29.70,10,0,16,0.00
2014-9-12,74.9,63.2,52.8,58.6,52.5,47.9,92,70,44,30.15,29.82,7,0,8,0.00
2014-9-13,69.4,57.4,46.8,58.3,51.5,45.7,99,82,58,30.20,30.03,5,0,5,0.18
2014-9-14,58.6,52.0,48.9,58.3,49.0,47.5,99,89,79,30.13,30.03,0,0,1,0.01
2014-9-15,69.4,54.4,41.5,49.5,46.1,41.2,100,77,41,30.17,30.01,6,0,8,0.00
2014-9-16,69.1,57.9,48.8,57.0,52.6,47.2,97,84,60,30.02,29.87,8,0,8,0.00
2014-9-17,73.5,58.7,47.7,52.8,47.9,38.3,100,73,30,29.94,29.84,6,0,8,0.00
2014-9-18,75.6,60.3,46.7,53.0,48.7,45.2,96,69,37,30.06,29.85,6,0,8,0.00
2014-9-19,60.2,50.8,42.1,46.8,38.1,33.9,83,63,38,30.35,30.06,5,0,7,0.00
2014-9-20,72.5,56.2,37.2,57.6,48.9,35.6,98,78,58,30.32,30.01,10,0,11,0.00
2014-9-21,79.4,69.4,58.7,72.7,66.6,56.7,100,91,73,30.01,29.48,6,0,8,0.03
2014-9-22,73.0,63.9,49.2,68.4,53.3,40.5,100,72,39,30.01,29.46,14,1,21,0.01
2014-9-23,71.5,54.7,41.2,48.9,43.8,39.6,95,70,40,30.35,30.01,11,0,12,0.00
2014-9-24,71.5,56.7,43.9,55.5,50.3,43.4,100,82,49,30.53,30.35,6,0,6,0.00
2014-9-25,61.3,55.0,48.6,55.2,52.2,48.5,100,91,77,30.47,30.15,2,0,3,0.00
2014-9-26,76.1,61.6,52.6,56.7,52.6,44.6,95,75,40,30.15,30.05,6,0,7,0.00
2014-9-27,85.3,66.2,51.1,60.0,55.7,50.6,100,74,34,30.11,30.04,5,0,6,0.00
2014-9-28,86.5,69.4,55.0,65.0,61.0,54.7,100,78,42,30.08,29.90,7,0,8,0.00
2014-9-29,77.2,64.8,57.8,63.9,61.0,57.8,100,89,61,29.93,29.84,4,0,5,0.00
2014-9-30,57.8,56.1,55.3,57.8,56.1,55.3,100,100,100,29.96,29.90,2,0,2,0.12
2014-10-1,57.5,56.5,55.6,57.5,56.5,55.6,100,100,100,30.01,29.92,4,0,5,0.69
2014-10-2,56.5,53.7,47.0,56.5,53.5,47.0,100,99,96,30.09,30.00,6,0,6,0.29
2014-10-3,56.7,50.8,43.5,54.1,49.7,43.5,100,96,83,30.06,29.82,3,0,3,0.02
2014-10-4,64.7,58.0,52.2,64.7,57.8,52.2,100,99,93,29.82,29.44,6,0,6,0.30
2014-10-5,61.8,52.2,42.8,60.4,44.6,35.1,100,79,39,29.87,29.48,10,0,11,0.00
2014-10-6,67.1,52.2,39.1,52.4,44.6,38.6,99,79,44,30.06,29.87,7,0,8,0.01
2014-10-7,72.8,62.6,52.3,62.8,57.9,51.5,100,86,56,30.06,29.89,14,0,14,0.01
2014-10-8,73.5,65.2,56.6,64.7,56.0,44.2,100,75,42,29.89,29.63,18,0,18,0.02
2014-10-9,65.5,55.2,46.1,45.8,41.5,35.2,86,62,38,29.92,29.79,14,0,14,0.00
2014-10-10,62.9,51.7,42.8,44.2,41.7,39.1,93,71,44,30.05,29.92,12,0,13,0.00
2014-10-11,49.6,45.5,40.8,49.6,44.9,40.8,100,98,88,30.05,29.99,1,0,1,0.01
2014-10-12,61.8,46.8,36.0,48.2,41.5,36.0,100,84,46,30.23,30.05,6,0,6,0.01
2014-10-13,63.7,52.5,40.1,55.8,48.5,39.4,100,87,66,30.29,30.18,7,0,7,0.00
2014-10-14,76.3,66.0,58.7,65.3,61.9,55.8,100,87,64,30.18,30.07,11,0,12,0.00
2014-10-15,79.9,69.3,63.4,68.6,66.1,63.4,100,91,65,30.07,29.88,11,0,11,0.00
2014-10-16,71.5,67.6,60.5,71.5,67.5,60.5,100,100,98,29.88,29.59,11,0,12,0.45
2014-10-17,71.5,62.5,57.6,61.5,57.7,52.9,100,86,54,29.62,29.53,13,0,13,0.00
2014-10-18,70.4,61.2,54.1,62.2,57.3,49.7,100,88,66,29.59,29.40,11,0,11,0.02
2014-10-19,55.7,50.2,41.6,51.0,38.9,29.0,90,66,47,29.88,29.52,12,0,13,0.00
2014-10-20,56.5,44.4,31.2,43.0,33.7,28.2,90,68,41,30.00,29.88,10,0,10,0.00
2014-10-21,62.4,53.6,45.1,59.9,52.1,42.2,100,95,81,29.92,29.81,3,0,3,0.07
2014-10-22,54.5,51.1,49.4,54.5,51.1,49.4,100,100,100,29.91,29.67,20,1,20,0.78
2014-10-23,53.8,50.8,48.2,53.8,50.8,48.2,100,100,100,29.72,29.50,13,1,16,1.27
2014-10-24,52.8,49.5,45.2,50.4,47.4,42.7,100,93,81,29.67,29.57,10,0,10,0.06
2014-10-25,64.0,51.7,41.1,48.8,44.5,39.9,100,79,43,29.70,29.40,10,0,10,0.00
2014-10-26,57.5,51.8,42.6,49.3,43.1,39.2,90,73,52,29.65,29.37,20,0,20,0.00
2014-10-27,61.6,50.6,42.5,43.0,40.9,39.2,90,71,45,29.95,29.64,12,0,12,0.00
2014-10-28,70.3,53.8,39.5,58.7,49.3,38.2,100,86,58,30.00,29.84,3,0,7,0.00
2014-10-29,75.1,61.4,51.1,63.5,57.4,45.8,100,88,60,29.85,29.67,10,0,10,0.01
2014-10-30,58.7,47.4,39.1,50.7,41.1,36.2,100,81,47,29.92,29.79,10,0,11,0.00
2014-10-31,53.5,45.5,38.0,42.8,39.7,36.2,99,81,64,29.97,29.84,5,0,5,0.00
2014-11-1,47.4,42.5,37.9,44.5,39.4,35.4,100,89,67,29.85,29.67,13,0,13,0.04
2014-11-2,40.3,37.3,32.5,37.4,30.2,15.7,100,79,40,29.77,29.53,18,2,22,0.00
2014-11-3,50.4,40.8,30.7,32.9,21.5,10.4,76,48,22,29.99,29.76,18,1,18,0.00
2014-11-4,62.7,50.6,37.5,47.8,35.0,27.1,85,57,31,30.05,29.91,6,0,6,0.00
2014-11-5,67.1,55.4,44.8,50.9,45.4,40.3,91,71,41,30.05,29.89,13,0,13,0.00
2014-11-6,49.1,47.5,43.8,49.1,45.4,40.0,100,93,75,30.03,29.39,2,0,2,0.27
2014-11-7,48.0,43.7,37.8,48.0,38.3,27.3,100,82,63,29.72,29.37,18,1,18,0.00
2014-11-8,47.7,39.0,30.9,32.9,27.3,22.5,83,64,39,29.89,29.72,12,0,12,0.00
2014-11-9,56.5,44.7,35.2,40.4,36.1,32.5,93,73,47,29.93,29.79,5,0,7,0.00
2014-11-10,59.5,44.2,31.0,39.7,34.9,29.9,98,74,37,30.12,29.93,6,0,6,0.00
2014-11-11,61.5,50.2,38.3,55.0,48.1,37.5,100,93,71,30.12,29.88,9,0,10,0.00
2014-11-12,60.5,53.1,41.5,58.4,50.4,34.2,100,91,65,29.93,29.76,6,0,6,0.00
2014-11-13,50.2,42.4,32.4,37.0,30.8,26.8,96,65,41,29.99,29.87,3,0,8,0.04
2014-11-14,41.1,34.7,29.4,35.8,29.4,20.9,100,83,45,30.00,29.81,5,0,8,0.02
2014-11-16,38.5,37.8,30.1,31.7,30.1,23.5,80,74,70,30.12,30.00,0,0,1,0.00
2014-11-17,51.0,40.2,35.2,50.8,39.7,31.2,100,98,81,30.05,29.35,3,0,4,0.64
2014-11-18,44.9,34.0,24.2,44.9,22.3,4.1,100,65,37,29.87,29.38,19,1,19,0.01
2014-11-19,35.2,28.0,21.0,18.7,10.2,5.2,64,48,33,30.07,29.87,14,0,14,0.00
2014-11-20,47.0,35.5,26.4,25.0,20.7,16.6,75,56,34,30.01,29.67,18,1,21,0.00
2014-11-21,33.8,28.0,23.5,20.8,12.3,7.2,78,52,37,30.35,29.84,20,0,20,0.00
2014-11-22,43.2,32.3,20.2,25.3,15.5,8.5,71,51,27,30.37,30.00,14,1,14,0.00
2014-11-23,58.4,47.3,40.8,39.8,32.5,23.9,86,57,45,30.08,30.00,12,0,12,0.00
2014-11-24,64.0,57.2,41.8,64.0,56.0,37.9,100,96,84,30.01,29.51,21,1,21,0.28
2014-11-25,62.0,54.8,44.1,56.9,42.4,27.2,100,67,31,30.04,29.62,13,0,16,0.00
2014-11-26,44.6,37.4,32.1,37.7,33.7,31.2,100,88,60,30.12,29.58,12,0,12,0.20
2014-11-27,36.5,32.5,28.7,35.5,31.9,28.2,100,98,92,29.93,29.58,11,0,11,0.19
2014-11-28,34.7,29.1,23.0,28.3,23.4,17.5,98,80,57,30.14,29.90,12,0,12,0.01
2014-11-29,33.2,25.7,16.9,24.3,17.7,13.7,94,73,47,30.27,30.14,3,0,4,0.00
2014-11-30,54.7,45.1,30.4,44.2,37.6,24.6,94,76,54,30.19,29.96,16,0,18,0.10
2014-12-1,63.9,52.2,39.5,49.8,42.4,28.2,81,69,59,30.35,29.94,16,0,18,0.00
2014-12-2,39.3,34.9,31.8,35.2,26.2,19.3,100,71,56,30.61,30.29,5,0,5,0.07
2014-12-3,49.9,42.1,35.2,49.9,41.0,27.9,100,96,67,30.29,29.82,20,1,21,0.19
2014-12-4,42.2,34.3,25.1,28.0,23.5,19.3,86,66,41,30.47,30.01,11,0,13,0.00
2014-12-5,41.1,31.7,21.0,36.4,25.6,17.0,98,79,58,30.61,30.35,4,0,4,0.13
2014-12-6,41.6,38.7,36.8,41.6,38.7,36.3,100,100,98,30.35,30.07,5,0,6,0.75
2014-12-7,37.0,30.9,20.3,37.0,20.7,1.2,100,68,40,30.59,30.14,11,0,11,0.12
2014-12-8,24.7,21.5,17.8,23.5,14.3,1.8,95,74,45,30.67,30.42,11,0,11,0.00
2014-12-9,49.2,39.1,24.7,49.2,39.0,23.5,100,100,95,30.42,29.40,12,1,12,1.14
2014-12-10,41.2,39.0,37.2,41.2,39.0,37.2,100,100,100,29.47,29.35,10,0,10,0.04
2014-12-12,31.5,31.2,31.0,27.8,27.5,27.3,86,86,85,29.80,29.80,0,0,2,0.00
2014-12-13,39.1,33.5,28.4,28.7,27.2,25.6,91,78,64,29.79,29.70,4,0,12,0.00
2014-12-14,43.8,33.3,27.5,31.8,28.4,25.3,95,83,61,29.84,29.70,5,0,5,0.00
2014-12-15,41.5,31.9,26.7,31.7,28.5,26.2,99,88,64,30.07,29.82,4,0,4,0.00
2014-12-16,40.1,35.6,27.3,38.8,34.1,26.6,98,94,88,30.08,29.83,1,0,1,0.00
2014-12-17,46.1,41.6,38.8,45.8,40.1,33.9,100,94,81,29.83,29.61,14,0,14,0.04
2014-12-18,41.5,38.0,34.6,34.2,31.1,28.9,97,77,64,29.79,29.64,16,0,16,0.02
2014-12-19,35.9,32.3,25.7,29.5,24.9,21.0,88,74,66,30.07,29.79,8,0,8,0.00
2014-12-20,33.7,28.9,23.8,28.4,23.8,20.9,90,81,70,30.23,30.07,2,0,2,0.00
2014-12-23,45.2,43.6,31.8,45.2,43.4,28.4,100,99,87,30.22,30.05,3,0,3,0.00
2014-12-24,61.2,45.7,40.3,61.2,45.7,40.3,100,100,100,30.05,29.47,14,0,14,0.16
2014-12-25,61.8,52.0,39.8,61.8,44.8,30.6,100,78,48,29.90,29.40,18,1,21,0.06
2014-12-26,48.0,39.7,32.1,33.7,31.3,28.7,88,72,55,30.10,29.90,16,0,16,0.00
2014-12-27,50.7,42.7,31.6,36.2,33.8,28.7,89,71,55,30.15,29.96,6,0,6,0.00
2014-12-28,50.8,43.9,36.5,45.8,37.6,28.4,98,79,65,29.96,29.69,13,0,18,0.01
2014-12-29,40.9,33.4,25.8,29.0,22.4,15.3,87,65,42,30.13,29.92,12,0,13,0.00
2014-12-30,28.4,22.9,17.5,17.0,7.5,-3.7,73,53,26,30.28,30.13,8,0,8,0.00
2014-12-31,28.1,19.7,13.8,10.3,7.3,5.3,73,59,38,30.25,30.05,10,0,11,0.00
2015-1-1,31.2,25.1,17.3,18.3,9.0,5.4,65,51,35,30.06,29.84,13,0,13,0.00
2015-1-2,38.9,32.9,27.9,21.3,17.9,13.6,67,54,43,30.37,29.87,18,0,18,0.00